sat.trackr.live / text

‹ back to catalog

STARLINK-2509

NORAD 48318 · 2021-036AU

PAYLOAD ACTIVE UNKNOWN

§ Identity

Operator
Country
US
Launch date
2021-04-29
Launch site
AFETR
Launch vehicle
Mass (kg)
RCS (m²)

Purposes: comms

External: N2YO · Heavens-Above · Gunter

§ Orbital elements

Epoch: 2026-09-20T00:42:25.452000Z

Period
94.01 min
Inclination
53.1587°
Eccentricity
0.0001360
Mean motion
15.31689355 rev/d
Perigee alt
469.8 km
Apogee alt
471.7 km
Semi-major
6,848.9 km
B*
2.7216e-5
RAAN
277.4402°
Arg perigee
97.2584°
Mean anomaly
262.8572°
Rev number
29,780

§ Raw data

STARLINK-25091 48318U 21036AU  26263.02946125  .00000479  00000+0  27216-4 0  99952 48318  53.1587 277.4402 0001360  97.2584 262.8572 15.31689355297800

JSON: /api/v1/satellites/48318 · /tle

For live sub-satellite position, see the globe view (requires WebGL).

§ Visibility from observer

Set your observer location to see the next 7 days of passes ≥ 10°. The values pass through the URL so the page stays shareable.

No JS? Fill the form by hand. The geolocation button needs JavaScript.